Weather History for Edwards AFB, CA

Change the Weather History Date:

Friday, April 19, 2013

  Actual Average Record
Temperature  
Mean Temperature 58 °F -  
Max Temperature 78 °F 71 °F 91 °F (1999)
Min Temperature 37 °F 44 °F 31 °F (2007)
Degree Days  
Heating Degree Days 8    
Growing Degree Days 8 (Base 50)    
Moisture  
Dew Point 12 °F    
Average Humidity 17    
Maximum Humidity 31    
Minimum Humidity 7    
Precipitation  
Precipitation 0.00 in - - ()
Sea Level Pressure  
Sea Level Pressure 30.10 in    
Wind  
Wind Speed 6 mph (West)    
Max Wind Speed 23 mph    
Max Gust Speed 28 mph    
Visibility 10 miles    
Events      
Averages and records for this station are not official NWS values.
T = Trace of Precipitation, MM = Missing Value Source: NWS Daily Summary

Daily Weather History Graph

Daily Weather History Graph

Search for Another Location

Airport:

Trip Planner

Search our weather history database for the weather conditions in past years. The results will help you decide how hot, cold, wet, or windy it might be!

Date:

Astronomy

Apr. 19, 2013 Rise Set
Actual Time 6:14 AM PDT 7:27 PM PDT
Civil Twilight 5:47 AM PDT 7:53 PM PDT
Nautical Twilight 5:16 AM PDT 8:25 PM PDT
Astronomical Twilight 4:44 AM PDT 8:57 PM PDT
Moon 1:30 PM PDT (4/19) 2:17 AM PDT (4/19)
Length of Visible Light 14h 05m
Length of Day
13h 13m
Waxing Gibbous, 62% of the Moon is Illuminated
Apr 19
Waxing Gibbous
Apr 25
Full
May 2
Last Quarter
May 9
New
May 17
First Quarter

Hourly Weather History & Observations

Time (PDT) Temp. Windchill Dew Point Humidity Pressure Visibility Wind Dir Wind Speed Gust Speed Precip Events Conditions
12:58 AM 43.7 °F 42.1 °F -2.6 °F 14% 30.21 in 10.0 mi SSE 3.5 mph - N/A   Clear
1:58 AM 44.8 °F 41.6 °F 5.0 °F 20% 30.19 in 10.0 mi WNW 5.8 mph - N/A   Clear
2:58 AM 39.9 °F 35.8 °F -2.9 °F 16% 30.20 in 10.0 mi East 5.8 mph - N/A   Clear
3:58 AM 38.8 °F - 0.7 °F 20% 30.20 in 10.0 mi Variable 1.2 mph - N/A   Clear
4:58 AM 40.3 °F 36.3 °F 11.3 °F 31% 30.20 in 10.0 mi SW 5.8 mph - N/A   Clear
5:58 AM 37.0 °F 33.3 °F 6.6 °F 28% 30.20 in 90.0 mi WSW 4.6 mph - N/A   Clear
6:58 AM 37.6 °F 35.1 °F 8.2 °F 30% 30.22 in 90.0 mi WSW 3.5 mph - N/A   Clear
7:58 AM 44.6 °F 43.1 °F 10.0 °F 25% 30.23 in 90.0 mi NNW 3.5 mph - N/A   Clear
8:58 AM 48.4 °F - 10.2 °F 21% 30.25 in 90.0 mi Calm Calm - N/A   Clear
9:58 AM 58.8 °F - 15.6 °F 18% 30.21 in 90.0 mi SE 2.3 mph - N/A   Partly Cloudy
10:58 AM 63.7 °F - 14.9 °F 15% 30.20 in 90.0 mi Variable 1.2 mph - N/A   Partly Cloudy
11:58 AM 68.9 °F - 4.3 °F 8% 30.17 in 90.0 mi ENE 4.6 mph - N/A   Partly Cloudy
12:58 PM 70.7 °F - 3.9 °F 7% 30.14 in 90.0 mi North 4.6 mph - N/A   Mostly Cloudy
1:58 PM 73.8 °F - 6.3 °F 7% 30.11 in 90.0 mi Variable 2.3 mph - N/A   Mostly Cloudy
2:58 PM 75.9 °F - 7.9 °F 7% 30.07 in 90.0 mi NE 5.8 mph - N/A   Scattered Clouds
3:58 PM 77.2 °F - 8.8 °F 7% 30.03 in 90.0 mi SW 5.8 mph - N/A   Scattered Clouds
4:11 PM 78.8 °F - 8.6 °F 7% 30.04 in 90.0 mi WSW 12.7 mph 19.6 mph N/A   Scattered Clouds
4:58 PM 77.9 °F - 10.6 °F 8% 30.01 in 80.0 mi Variable 6.9 mph - N/A   Partly Cloudy
5:58 PM 76.8 °F - 18.9 °F 11% 29.98 in 70.0 mi West 20.7 mph - N/A   Partly Cloudy
6:10 PM 75.2 °F - 17.6 °F 11% 30.00 in 70.0 mi WNW 20.7 mph 27.6 mph N/A   Partly Cloudy
6:58 PM 73.4 °F - 20.8 °F 14% 29.97 in 60.0 mi WNW 23.0 mph - N/A   Clear
7:58 PM 69.1 °F - 23.0 °F 18% 29.98 in 40.0 mi West 17.3 mph - N/A   Clear
8:58 PM 66.6 °F - 24.6 °F 20% 29.98 in 30.0 mi West 16.1 mph - N/A   Clear
9:58 PM 64.8 °F - 23.2 °F 21% 29.97 in 30.0 mi WSW 12.7 mph - N/A   Clear
10:58 PM 63.0 °F - 22.8 °F 22% 29.96 in 10.0 mi WSW 8.1 mph - N/A   Clear
11:58 PM 61.0 °F - 24.3 °F 25% 29.97 in 10.0 mi SW 11.5 mph - N/A   Clear